Flag for Hungary Weather past 2 weeks in Szeged, Hungary

Now
80 °F

Passing clouds.


Feels Like: 80 °F
Forecast: 60 / 83 °F
Wind: 3 mph from North

Location: Szeged

Current Time: Jul 1, 2015 at 8:01:27 PM

Latest Report: Jul 1, 2015 at 7:00 PM


Visibility: 31 mi

Pressure: 30.14 "Hg

Humidity: 39%

Dew point: 53 °F

Location of SzegedLocation

Historic Weather in Szeged — Graph

°F

Szeged temperature yesterday

Maximum temperature yesterday: 78 °F (at 4:00 PM)
Minimum temperature yesterday: 56 °F (at 5:00 AM)
Average temperature yesterday: 66 °F

Past Weeks' High & Low Weather Summary

 TemperatureHumidityPressure
High82 °F (Jul 1, 6:00 PM)96% (Jun 30, 5:00 AM)30.19 "Hg (Jun 30, 5:00 AM)
Low45 °F (Jun 22, 5:00 AM)35% (Jun 22, 2:00 PM)29.83 "Hg (Jun 19, 3:00 PM)
Average64 °F68%30.01 "Hg
* Reported Jun 16 6:00 PM — Jul 1 6:00 PM, Szeged, Weather by CustomWeather, © 2015

Note: Actual official high and low records may vary slightly from our data, if they occured in-between our weather recording intervals... More about our weather records

Advertising

Szeged weather history for previous 24 hours

 ConditionsComfort  
Time TempWeatherWind HumidityBarometerVisibility
6:00 PM
Wed, Jul 1
82 °FPassing clouds.1 mph43%30.13 "Hg31 mi
5:00 PM82 °FScattered clouds.3 mph41%30.14 "Hg31 mi
4:00 PM82 °FScattered clouds.3 mph42%30.14 "Hg25 mi
3:00 PM82 °FPartly sunny.3 mph47%30.15 "Hg25 mi
2:00 PM81 °FScattered clouds.2 mph36%30.16 "Hg25 mi
1:00 PM80 °FScattered clouds.2 mph39%30.18 "Hg22 mi
12:00 PM79 °FPassing clouds.2 mph43%30.18 "Hg19 mi
11:00 AM78 °FPassing clouds.2 mph43%30.18 "Hg19 mi
10:00 AM77 °FSunny.2 mph51%30.18 "Hg19 mi
9:00 AM74 °FSunny.2 mph59%30.17 "Hg19 mi
8:00 AM69 °FSunny.1 mph72%30.16 "Hg11 mi
7:00 AM64 °FSunny.2 mph85%30.16 "Hg9 mi
6:00 AM55 °FSunny.No wind96%30.15 "Hg9 mi
5:00 AM55 °FPassing clouds.No wind95%30.14 "Hg9 mi
4:00 AM55 °FPassing clouds.No wind95%30.14 "Hg12 mi
3:00 AM56 °FPassing clouds.No wind94%30.14 "Hg12 mi
2:00 AM57 °FPassing clouds.1 mph94%30.14 "Hg12 mi
1:00 AM58 °FPassing clouds.1 mph94%30.14 "Hg12 mi
12:00 AM60 °FPassing clouds.No wind92%30.14 "Hg12 mi
11:00 PM
Tue, Jun 30
62 °FPassing clouds.1 mph88%30.14 "Hg12 mi
10:00 PM66 °FPassing clouds.1 mph78%30.13 "Hg12 mi
9:00 PM69 °FPassing clouds.1 mph77%30.11 "Hg12 mi
8:00 PM74 °FPartly sunny.2 mph55%30.10 "Hg14 mi
Weather by CustomWeather, © 2015

See weather overviewHow to use our weather pages